This demonstration page uses our WeatherBlox Daily Observations layout. Learn more.

38.89511, -77.03637

Hourly Observations for April 29, 2017

Temp ( °F °C ) Dew Point ( °F °C ) Humidity (%) Winds ( mph kmh ) Pressure ( in mb ) Visibility ( mi km ) Precip ( " mm )
12:52 am 00:52 Mostly Cloudy 71 21.7 68 20 90 90 SSW 6 9 30 1016 10 16.09344 0 0
1:52 am 01:52 Cloudy 70 21.1 68 20 93 93 SE 3 6 30 1016 10 16.09344 0 0
2:52 am 02:52 Cloudy 70 21.1 68 20 93 93 SSW 3 6 29.97 1015 10 16.09344 0 0
3:52 am 03:52 Cloudy 74 23.3 68 20 82 82 W 5 7 30.03 1017 10 16.09344 0 0
3:55 am 03:55 Cloudy with Thunderstorms 74 23.3 68 20 82 82 W 6 9 30.06 1018 10 16.09344 0 0
4:15 am 04:15 Cloudy 74 23.3 68 20 82 82 NW 8 13 30.09 1019 10 16.09344 0 0
4:52 am 04:52 Cloudy 73 22.8 68 20 84 84 SSW 7 11 30.03 1017 10 16.09344 0 0
5:52 am 05:52 Mostly Cloudy 71 21.7 68 20 90 90 S 13 20 29.97 1015 10 16.09344 0 0
6:52 am 06:52 Cloudy 71 21.7 68 20 90 90 S 8 13 30 1016 10 16.09344 0 0
7:52 am 07:52 Cloudy 73 22.8 69 20.6 87 87 SSW 7 11 30.06 1018 10 16.09344 0 0
8:52 am 08:52 Cloudy 74 23.3 68 20 82 82 WSW 5 7 30.09 1019 10 16.09344 0 0
9:52 am 09:52 Cloudy 79 26.1 67 19.4 67 67 WSW 8 13 30.09 1019 10 16.09344 0 0
10:52 am 10:52 Cloudy 81 27.2 63 17.2 54 54 WSW 9 15 30.09 1019 10 16.09344 0 0
11:52 am 11:52 Mostly Cloudy 82 27.8 68 20 63 63 S 13 20 30.06 1018 10 16.09344 0 0
12:52 pm 12:52 Mostly Cloudy 86 30 68 20 55 55 SSW 15 24 30.03 1017 10 16.09344 0 0
1:52 pm 13:52 Mostly Cloudy 88 31.1 67 19.4 50 50 SW 16 26 30.03 1017 10 16.09344 0 0
2:52 pm 14:52 Mostly Cloudy 90 32.2 70 21.1 52 52 SSW 13 20 30.03 1017 10 16.09344 0 0
3:52 pm 15:52 Cloudy 89 31.7 68 20 50 50 W 12 19 30.03 1017 10 16.09344 0 0
4:52 pm 16:52 Cloudy 90 32.2 63 17.2 41 41 WNW 9 15 30 1016 10 16.09344 0 0
5:52 pm 17:52 Cloudy 90 32.2 65 18.3 44 44 W 7 11 30 1016 10 16.09344 0 0
6:52 pm 18:52 Cloudy 84 28.9 68 20 59 59 S 9 15 30 1016 10 16.09344 0 0
7:52 pm 19:52 Cloudy 81 27.2 70 21.1 69 69 S 7 11 30.03 1017 10 16.09344 0 0
8:52 pm 20:52 Cloudy 79 26.1 71 21.7 77 77 S 7 11 30.03 1017 10 16.09344 0 0
9:52 pm 21:52 Mostly Cloudy 78 25.6 72 22.2 82 82 S 9 15 30.06 1018 10 16.09344 0 0
10:52 pm 22:52 Partly Cloudy 77 25 71 21.7 82 82 S 9 15 30.06 1018 10 16.09344 0 0
11:52 pm 23:52 Clear 77 25 72 22.2 85 85 S 10 17 30.06 1018 10 16.09344 0 0

Powered by AerisWeather